COSMOS 1275 DEB, 42226

Orbit data source: Space-Track

COSMOS 1275 DEB, 42226 is space debris in LEO originally from a launch on Thu, 04 Jun 1981 UTC launched from the Plesetsk Missile And Space Complex (PKMTR). Debris objects in space refer to the collection of defunct objects orbiting the Earth. Examples of debris include non-operational satellites, rocket bodies, and fragments generated from explosions, collisions, or faulty payload assembly.

Loading next visibility...
COSMOS 1275 DEB details
Identifier
42226, 1981-053US
Orbit
LEO
Last TLE update4 days ago
Origin
Flag of CISGUKOS (CIS)
ManufacturerUnknown
MissionSpacecraft
Bus & MotorUnknown
MassUnknown
Launch date (UTC)
1981-06-04 (44 years ago)
Launch vehicleUnknown
Launch site
Plesetsk Missile And Space Complex (PKMTR)
Object type
Payload
Rocket body
Debris
Shape & HBRUnknown
Radar Cross SectionSmall (<0.1 m²)

Expand to show TLE details & history

TLE from 4 days ago
0 COSMOS 1275 DEB
1 42226U 81053US  24343.99000734  .00001720  00000-0  19269-2 0  9990
2 42226  82.9534 251.1643 0110292 278.5222  80.3444 13.67965925551449
Epoch: 2024-12-08T23:45Z
Definitive object data (Epoch: 2024-12-08T23:45:36.634Z)
Latitude0.00001°
Longitude176.54183°
Altitude996.984 km
Speed7.36 km/s
True Right ascension16h 44m 39s
True Declination0° 00' 00"
Sunlit
Object was in daylight at TLE epoch
Visualization TLE readout
Latitude19.7835°
Longitude-9.17159°
Altitude1,031.569 km
Speed7.327 km/s
Apparent Right ascension01h 29m 08s
Apparent Declination-21° 37' 05"
Sunlit
Object is in full shadow
Visualization observer readout
Local Sidereal Time06:36:48
Azimuth245.242° WSW
Elevation-4.301°
Doppler factor1
Orbital elements
Apogee altitude1,085.46 km
Perigee altitude922.621 km
Semi-major axis7,382.177 km
Eccentricity0.0110292
Inclination82.9534°
RAAN251.1643°
Arg. of periapsis278.5222°
True anomaly81.59314°
Mean anomaly80.3444°
Eccentric anomaly80.96849°
Mean motion3.42189 °/min
BSTAR0.0019269
Orbital period105.2 mins
Loading maneuver chart data...
Loading historical data...
Loading historical data...
Loading historical data...
Loading historical data...
Loading historical data...
Loading historical data...
Loading historical data...

COSMOS 1275 DEB Visibility forecast

Observer location: undefined°, undefined

Span
Click to sort rows by Start time (UTC) header in descending order
Start Az.
Max El. time (UTC)
Max El. Az.
Max El.
End time (UTC)
End Az.
12 mins2024-12-13 17:57:15.215Z172.117° S2024-12-13 18:03:15.215Z102.524° ESE42.102°2024-12-13 18:09:15.215Z14.368° NNE
7 mins2024-12-13 19:47:15.215Z260.15° W2024-12-13 19:50:15.215Z293.585° NW19.484°2024-12-13 19:54:15.215Z333.391° NNW
10 mins2024-12-14 05:00:15.215Z6.908° NNE2024-12-14 05:05:15.215Z92.003° ESE39.587°2024-12-14 05:10:15.215Z154.52° SSE
7 mins2024-12-14 06:47:15.215Z312.486° NW2024-12-14 06:50:15.215Z278.978° WNW21.036°2024-12-14 06:54:15.215Z235.494° WSW
|